Anchorage Merrill, AK

2:23 PM AKST on February 23, 2018 (GMT -0900)
Merrill

Weather History for PAMR - September, 2011

Change the Weather History Date:

Friday, September 16, 2011

  Actual Average Record
Temperature  
Mean Temperature 50 °F -  
Max Temperature 54 °F 54 °F 60 °F (1997)
Min Temperature 46 °F 39 °F 28 °F (2004)
Degree Days  
Heating Degree Days 15    
Moisture  
Dew Point 42 °F    
Average Humidity 75    
Maximum Humidity 86    
Minimum Humidity 59    
Precipitation  
Precipitation 0.00 in - - ()
Sea Level Pressure  
Sea Level Pressure 29.58 in    
Wind  
Wind Speed 1 mph (West)    
Max Wind Speed 6 mph    
Max Gust Speed -    
Visibility 10 miles    
Events      
Averages and records for this station are not official NWS values.
T = Trace of Precipitation, MM = Missing Value Source: NWS Daily Summary

Daily Weather History Graph

Daily Weather History Graph

Search for Another Location

Airport or City:

Trip Planner

Search our weather history database for the weather conditions in past years. The results will help you decide how hot, cold, wet, or windy it might be!

Date:

Astronomy

Sep. 16, 2011 Rise Set
Actual Time 7:28 AM AKDT 8:18 PM AKDT
Civil Twilight 6:44 AM AKDT 9:02 PM AKDT
Nautical Twilight 5:50 AM AKDT 9:56 PM AKDT
Astronomical Twilight 4:47 AM AKDT 10:57 PM AKDT
Moon 8:32 PM AKDT (9/16) 1:22 PM AKDT (9/16)
Length of Visible Light 14h 17m
Length of Day
12h 50m
Waning Gibbous, 83% of the Moon is Illuminated
Sep 16
Waning Gibbous
Sep 20
Last Quarter
Sep 27
New
Oct 3
First Quarter
Oct 11
Full

Hourly Weather History & Observations

Time (AKDT) Temp. Dew Point Humidity Pressure Visibility Wind Dir Wind Speed Gust Speed Precip Events Conditions
12:53 AM 48.0 °F 43.0 °F 83% 29.59 in 10.0 mi Calm Calm - N/A   Mostly Cloudy
1:53 AM 48.0 °F 43.0 °F 83% 29.59 in 10.0 mi East 3.5 mph - N/A   Mostly Cloudy
2:53 AM 46.9 °F 43.0 °F 86% 29.60 in 10.0 mi East 3.5 mph - N/A   Mostly Cloudy
3:53 AM 48.0 °F 43.0 °F 83% 29.59 in 10.0 mi Calm Calm - N/A   Mostly Cloudy
4:53 AM 48.9 °F 44.1 °F 83% 29.59 in 10.0 mi West 3.5 mph - N/A   Mostly Cloudy
5:53 AM 48.0 °F 44.1 °F 86% 29.59 in 10.0 mi Calm Calm - N/A   Mostly Cloudy
6:53 AM 46.9 °F 43.0 °F 86% 29.60 in 10.0 mi Calm Calm - N/A   Mostly Cloudy
7:53 AM 46.9 °F 43.0 °F 86% 29.59 in 10.0 mi Calm Calm - N/A   Mostly Cloudy
8:53 AM 48.0 °F 43.0 °F 83% 29.59 in 10.0 mi Calm Calm - N/A   Mostly Cloudy
9:53 AM 48.9 °F 44.1 °F 83% 29.59 in 10.0 mi Calm Calm - N/A   Mostly Cloudy
10:53 AM 50.0 °F 41.0 °F 71% 29.60 in 10.0 mi Calm Calm - N/A   Overcast
11:53 AM 51.1 °F 39.9 °F 66% 29.60 in 10.0 mi Calm Calm - 0.00 in   Overcast
12:53 PM 51.1 °F 39.9 °F 66% 29.60 in 10.0 mi Calm Calm - N/A   Overcast
1:53 PM 53.1 °F 42.1 °F 66% 29.59 in 10.0 mi Calm Calm - N/A   Overcast
2:53 PM 53.1 °F 41.0 °F 64% 29.59 in 10.0 mi Calm Calm - N/A   Overcast
3:53 PM 54.0 °F 39.9 °F 59% 29.58 in 10.0 mi West 4.6 mph - N/A   Overcast
4:53 PM 53.1 °F 41.0 °F 64% 29.57 in 10.0 mi West 5.8 mph - N/A   Overcast
5:53 PM 53.1 °F 41.0 °F 64% 29.56 in 10.0 mi WSW 4.6 mph - N/A   Mostly Cloudy
6:53 PM 52.0 °F 41.0 °F 66% 29.55 in 10.0 mi Calm Calm - N/A   Overcast
7:53 PM 51.1 °F 39.9 °F 66% 29.54 in 10.0 mi Calm Calm - N/A   Mostly Cloudy
8:53 PM 50.0 °F 42.1 °F 74% 29.54 in 10.0 mi Calm Calm - N/A   Overcast
9:53 PM 48.0 °F 42.1 °F 80% 29.53 in 10.0 mi Calm Calm - N/A   Mostly Cloudy
10:53 PM 46.9 °F 42.1 °F 83% 29.52 in 10.0 mi Calm Calm - N/A   Mostly Cloudy
11:53 PM 46.0 °F 39.9 °F 79% 29.52 in 10.0 mi Calm Calm - N/A   Mostly Cloudy